Weather Service Report


303 
ASUS45 KABQ 030710
RWRNM 
WEATHER ROUNDUP FOR NEW MEXICO
NATIONAL WEATHER SERVICE ALBUQUERQUE NM
1200 AM MST TUE MAR 03 2015

NOTE: "FAIR" MEANS FEW OR NO CLOUDS BELOW 12,000 FEET AGL WITH NO
       SIGNIFICANT WEATHER OR OBSTRUCTIONS TO VISION.

      THIS PRODUCT IS RELEASED AS TWO VERSIONS.  ONE VERSION NEAR
      THE TOP OF THE HOUR CONTAINING PRELIMINARY DATA FROM ALBUQUERQUE
      AND OTHER STATIONS.  A FINAL VERSION WITH ADDITIONAL DATA IS 
      ISSUED ABOUT 10 MINUTES AFTER THE HOUR.
 
NMZ501-503-504-510>518-030800-
NORTHWEST PLATEAU/NORTHCENTRAL MOUNTAINS
  
CITY           SKY/WX    TMP DP  RH WIND       PRES   REMARKS
FARMINGTON     PTCLDY    35  28  75 NW7       29.93F WCI  29          
LOS ALAMOS     CLOUDY    36  24  62 W18G37    29.93R WCI  25          
SANTA FE       CLOUDY    35  32  88 W6        29.95R WCI  30          
TAOS           CLOUDY    34  25  69 SW13      29.92F WCI  25          
ANGEL FIRE     LGT SNOW  29  25  85 SW23G38   29.89F VSB 1   WCI  16  

$$
NMZ402-403-502-505>509-030800-
WESTCENTRAL MOUNTAINS/SOUTHWEST MOUNTAINS
  
CITY           SKY/WX    TMP DP  RH WIND       PRES   REMARKS
GALLUP         CLOUDY    33  29  85 SW13      29.98F WCI  24          
GRANTS         CLOUDY    35  25  67 W15G28    29.98F WCI  25          
SILVER CITY    CLOUDY    45  41  87 NW8       30.00S                  

$$
NMZ407-409-411-412-030800-
SOUTHERN DESERTS
  
CITY           SKY/WX    TMP DP  RH WIND       PRES   REMARKS
LORDSBURG      LGT RAIN  43  41  93 NW12      29.99F                  
DEMING         CLOUDY    53  45  74 W15       29.94F                  
LAS CRUCES     CLOUDY    55  44  65 SW21G28   29.95F                  
HOLLOMAN AFB   MOCLDY    54  47  77 SW12      29.92F                  
ALAMOGORDO     MOCLDY    57  45  62 S12       29.95F                  
T OR C         MOCLDY    52  40  63 S14       29.91F                  

$$
NMZ519>523-030800-
CENTRAL VALLEYS/CENTRAL HIGHLANDS
  
CITY           SKY/WX    TMP DP  RH WIND       PRES   REMARKS
ALBUQUERQUE    CLOUDY    42  34  73 N12       29.98S                  
DOUBLE EAGLE   CLOUDY    38  32  77 CALM      29.97F                  
MORIARTY ARPT  CLOUDY    36  33  88 NW9       29.97S WCI  29          
CLINES CORNERS LGT SNOW  33  31  92 W20       29.92S FOG     WCI  21  
BELEN          DRIZZLE   42  35  76 W8        29.97S                  
SOCORRO          N/A     44  36  71 NE12      29.95R                  

$$
NMZ524>526-539-540-030800-
SOUTHCENTRAL MOUNTAINS
  
CITY           SKY/WX    TMP DP  RH WIND       PRES   REMARKS
RUIDOSO        MOCLDY    45  39  81 SW24G33   29.97F                  

$$
NMZ527>531-030800-
NORTHEAST HIGHLANDS/NORTHEAST PLAINS
  
CITY           SKY/WX    TMP DP  RH WIND       PRES   REMARKS
LAS VEGAS      CLOUDY    38  32  79 W18G29    29.83F WCI  28          
RATON          PTCLDY    34  30  85 SW14G20   29.76F WCI  25          
CLAYTON        CLOUDY    37  34  89 SW17G29   29.76F WCI  27          

$$
NMZ532>537-030800-
EASTCENTRAL PLAINS
  
CITY           SKY/WX    TMP DP  RH WIND       PRES   REMARKS
TUCUMCARI      MOCLDY    38  34  85 SW9       29.83F WCI  31          
CANNON AFB     PTCLDY    33  32  98 S8        29.89F WCI  26          
CLOVIS AIRPORT MOCLDY    34  30  86 S13       29.89F WCI  25          

$$
NMZ028-029-538-030800-
SOUTHEAST PLAINS
  
CITY           SKY/WX    TMP DP  RH WIND       PRES   REMARKS
ROSWELL        MOCLDY    37  34  89 S16G22    29.93F WCI  28          
ARTESIA        MOCLDY    37  37 100 SE18      29.95F WCI  27          
CARLSBAD       CLOUDY    38  36  92 S13       29.97S FOG     WCI  30  
HOBBS          CLOUDY    36  36 100 SW10      30.00S FOG     WCI  28  


$$

Return to Home page


Western Regional Climate Center, wrcc@dri.edu